Tracking 30743 objects as of 20-Jun-2025
HD Live streaming from Space Station
objects crossing your sky now

OPS 7033 (VELA 11)

Track OPS 7033 (VELA 11) now!
OPS 7033 (VELA 11) is classified as:


NORAD ID: 4368
Int'l Code: 1970-027B
Perigee: 19,232.9 km
Apogee: 203,392.1 km
Inclination: 86.2 °
Period: 6,696.3 minutes
Semi major axis: 117683 km
RCS: Unknown
Launch date: April 8, 1970
Source: United States (US)
Launch site: AIR FORCE EASTERN TEST RANGE (AFETR)
Your satellite tracking list
Your tracking list is empty




NASA's NSSDC Master Catalog

Two Line Element Set (TLE):
1  4368U 70027B   25162.90992538 -.00000395  00000-0  00000+0 0  9995
2  4368  86.1941 359.2669 7824343  72.0060   0.7294  0.21504509 36870
Source of the keplerian elements: AFSPC